Montpelier, VT

10:12 PM EDT on October 21, 2017 (GMT -0400)
Knapp State

Weather History for KMPV - October, 2012

Change the Weather History Date:

Friday, October 5, 2012

  Actual Average Record
Temperature  
Mean Temperature 60 °F 50 °F  
Max Temperature 73 °F 60 °F 82 °F (1951)
Min Temperature 47 °F 39 °F 23 °F (1996)
Degree Days  
Heating Degree Days 5 16  
Month to date heating degree days 43 74  
Since 1 July heating degree days 366 429  
Cooling Degree Days 0 0  
Month to date cooling degree days 0 0  
Year to date cooling degree days 291 263  
Growing Degree Days 10 (Base 50)    
Moisture  
Dew Point 53 °F    
Average Humidity 71    
Maximum Humidity 100    
Minimum Humidity 41    
Precipitation  
Precipitation 0.01 in 0.11 in 1.01 in (1962)
Month to date precipitation 0.40 0.58  
Year to date precipitation 26.31 28.50  
Sea Level Pressure  
Sea Level Pressure 30.01 in    
Wind  
Wind Speed 5 mph (South)    
Max Wind Speed 15 mph    
Max Gust Speed 18 mph    
Visibility 5 miles    
Events Fog    
T = Trace of Precipitation, MM = Missing Value Source: NWS Daily Summary

Daily Weather History Graph

Daily Weather History Graph

Search for Another Location

Airport or City:

Trip Planner

Search our weather history database for the weather conditions in past years. The results will help you decide how hot, cold, wet, or windy it might be!

Date:

Astronomy

Oct. 05, 2012 Rise Set
Actual Time 6:53 AM EDT 6:22 PM EDT
Civil Twilight 6:24 AM EDT 6:51 PM EDT
Nautical Twilight 5:50 AM EDT 7:25 PM EDT
Astronomical Twilight 5:17 AM EDT 7:58 PM EDT
Moon 9:33 PM EDT (10/5) 12:08 PM EDT (10/5)
Length of Visible Light 12h 27m
Length of Day
11h 29m
Waning Gibbous, 74% of the Moon is Illuminated
Oct 5
Waning Gibbous
Oct 8
Last Quarter
Oct 15
New
Oct 21
First Quarter
Oct 29
Full

Hourly Weather History & Observations

Time (EDT) Temp. Dew Point Humidity Pressure Visibility Wind Dir Wind Speed Gust Speed Precip Events Conditions
12:04 AM 51.8 °F 51.8 °F 100% 30.06 in 1.2 mi Calm Calm - N/A   Partly Cloudy
12:06 AM 51.8 °F 51.8 °F 100% 30.06 in 0.8 mi Calm Calm - N/A   Mist
12:51 AM 51.1 °F 51.1 °F 100% 30.06 in 0.2 mi Calm Calm - N/A Fog Fog
1:51 AM 48.9 °F 48.9 °F 100% 30.05 in 0.2 mi Calm Calm - N/A Fog Fog
2:51 AM 48.9 °F 48.9 °F 100% 30.04 in 0.5 mi Calm Calm - N/A Fog Fog
3:51 AM 48.0 °F 48.0 °F 100% 30.04 in 0.5 mi Calm Calm - N/A Fog Fog
4:51 AM 48.0 °F 48.0 °F 100% 30.04 in 0.2 mi Calm Calm - 0.01 in Fog Fog
5:51 AM 48.9 °F 48.9 °F 100% 30.06 in 0.5 mi Calm Calm - N/A Fog Fog
6:51 AM 46.9 °F 46.9 °F 100% 30.05 in 0.2 mi Calm Calm - N/A Fog Fog
7:51 AM 48.9 °F 48.9 °F 100% 30.05 in 0.2 mi SSE 3.5 mph - N/A Fog Fog
8:20 AM 51.8 °F 51.8 °F 100% 30.04 in 1.2 mi Calm Calm - N/A   Mostly Cloudy
8:22 AM 51.8 °F 51.8 °F 100% 30.05 in 2.0 mi Calm Calm - N/A   Overcast
8:26 AM 51.8 °F 51.8 °F 100% 30.05 in 1.2 mi Calm Calm - N/A   Overcast
8:29 AM 50.0 °F 50.0 °F 100% 30.04 in 0.8 mi Calm Calm - N/A   Mist
8:51 AM 52.0 °F 52.0 °F 100% 30.05 in 0.5 mi Calm Calm - N/A Fog Fog
8:57 AM 51.8 °F 51.8 °F 100% 30.03 in 1.2 mi Calm Calm - N/A   Overcast
8:59 AM 51.8 °F 51.8 °F 100% 30.03 in 2.0 mi Calm Calm - N/A   Overcast
9:08 AM 53.6 °F 53.6 °F 100% 30.04 in 1.2 mi Calm Calm - N/A   Overcast
9:11 AM 53.6 °F 53.6 °F 100% 30.04 in 0.8 mi Calm Calm - N/A   Overcast
9:51 AM 55.9 °F 55.9 °F 100% 30.04 in 0.2 mi Calm Calm - N/A Fog Fog
10:00 AM 57.2 °F 57.2 °F 100% 30.03 in 1.2 mi Calm Calm - N/A   Mostly Cloudy
10:03 AM 57.2 °F 57.2 °F 100% 30.03 in 4.0 mi Calm Calm - N/A   Mostly Cloudy
10:15 AM 57.2 °F 57.2 °F 100% 30.03 in 8.0 mi Calm Calm - N/A   Scattered Clouds
10:51 AM 61.0 °F 57.0 °F 87% 30.03 in 10.0 mi SSE 10.4 mph - N/A   Clear
11:51 AM 64.0 °F 57.9 °F 80% 30.02 in 10.0 mi SSE 13.8 mph - N/A   Clear
12:51 PM 71.1 °F 55.9 °F 59% 29.99 in 10.0 mi South 8.1 mph - N/A   Mostly Cloudy
1:51 PM 71.1 °F 57.9 °F 63% 29.96 in 10.0 mi Variable 6.9 mph - N/A   Mostly Cloudy
2:51 PM 73.0 °F 48.9 °F 42% 29.94 in 10.0 mi SSW 8.1 mph - N/A   Partly Cloudy
3:51 PM 72.0 °F 52.0 °F 49% 29.94 in 10.0 mi Variable 6.9 mph - N/A   Overcast
4:51 PM 70.0 °F 53.1 °F 55% 29.94 in 10.0 mi SSW 3.5 mph - N/A   Scattered Clouds
5:51 PM 66.0 °F 54.0 °F 65% 29.94 in 10.0 mi South 4.6 mph - N/A   Partly Cloudy
6:51 PM 64.9 °F 54.0 °F 68% 29.94 in 10.0 mi South 5.8 mph - N/A   Mostly Cloudy
7:51 PM 60.1 °F 54.0 °F 80% 29.94 in 10.0 mi SSE 6.9 mph - N/A   Clear
8:51 PM 62.1 °F 55.0 °F 78% 29.92 in 10.0 mi Calm Calm - N/A   Clear
9:51 PM 66.0 °F 55.0 °F 68% 29.92 in 10.0 mi SW 9.2 mph - N/A   Mostly Cloudy
10:51 PM 66.0 °F 55.0 °F 68% 29.92 in 10.0 mi SW 8.1 mph - N/A   Mostly Cloudy
11:51 PM 64.4 °F 55.4 °F 73% 29.90 in 10.0 mi SW 6.9 mph - N/A   Overcast